Weather History for St. James, MN

Change the Weather History Date:

Thursday, July 25, 2013

  Actual Average Record
Temperature  
Mean Temperature 73 °F -  
Max Temperature 86 °F 83 °F 95 °F (1976)
Min Temperature 60 °F 61 °F 33 °F (2014)
Cooling Degree Days 8    
Growing Degree Days 23 (Base 50)    
Moisture  
Dew Point 62 °F    
Average Humidity 74    
Maximum Humidity 94    
Minimum Humidity 51    
Precipitation  
Precipitation 0.00 in - - ()
Sea Level Pressure  
Sea Level Pressure 29.98 in    
Wind  
Wind Speed 6 mph (South)    
Max Wind Speed 15 mph    
Max Gust Speed 34 mph    
Visibility 10 miles    
Events      
Averages and records for this station are not official NWS values.
T = Trace of Precipitation, MM = Missing Value Source: NWS Daily Summary

Daily Weather History Graph

Daily Weather History Graph

Search for Another Location

Airport:

Trip Planner

Search our weather history database for the weather conditions in past years. The results will help you decide how hot, cold, wet, or windy it might be!

Date:

Astronomy

Jul. 25, 2013 Rise Set
Actual Time 5:59 AM CDT 8:49 PM CDT
Civil Twilight 5:25 AM CDT 9:23 PM CDT
Nautical Twilight 4:42 AM CDT 10:05 PM CDT
Astronomical Twilight 3:52 AM CDT 10:55 PM CDT
Moon 10:20 PM CDT (7/25) 9:39 AM CDT (7/25)
Length of Visible Light 15h 57m
Length of Day
14h 50m
Waning Gibbous, 88% of the Moon is Illuminated
Jul 25
Waning Gibbous
Jul 29
Last Quarter
Aug 6
New
Aug 14
First Quarter
Aug 20
Full

Hourly Weather History & Observations

Time (CDT) Temp. Heat Index Dew Point Humidity Pressure Visibility Wind Dir Wind Speed Gust Speed Precip Events Conditions
12:15 AM 64.4 °F - 57.2 °F 77% 30.03 in 10.0 mi South 4.6 mph - N/A   Scattered Clouds
12:35 AM 62.6 °F - 57.2 °F 82% 30.02 in 10.0 mi South 3.5 mph - N/A   Clear
12:54 AM 62.6 °F - 57.2 °F 82% 30.02 in 10.0 mi South 5.8 mph - N/A   Clear
1:15 AM 62.6 °F - 55.4 °F 77% 30.02 in 10.0 mi South 5.8 mph - N/A   Clear
1:35 AM 62.6 °F - 57.2 °F 82% 30.01 in 10.0 mi South 5.8 mph - N/A   Clear
1:55 AM 62.6 °F - 55.4 °F 77% 30.00 in 10.0 mi South 6.9 mph - N/A   Clear
2:15 AM 62.6 °F - 55.4 °F 77% 30.01 in 10.0 mi South 6.9 mph - N/A   Clear
2:35 AM 62.6 °F - 55.4 °F 77% 30.00 in 10.0 mi South 5.8 mph - N/A   Clear
2:55 AM 62.6 °F - 55.4 °F 77% 30.00 in 10.0 mi South 5.8 mph - N/A   Clear
3:15 AM 62.6 °F - 57.2 °F 82% 29.99 in 10.0 mi South 3.5 mph - N/A   Clear
3:35 AM 62.6 °F - 57.2 °F 82% 29.99 in 10.0 mi South 4.6 mph - N/A   Clear
3:55 AM 62.6 °F - 57.2 °F 82% 29.99 in 10.0 mi South 4.6 mph - N/A   Clear
4:15 AM 60.8 °F - 57.2 °F 88% 30.00 in 10.0 mi South 4.6 mph - N/A   Clear
4:35 AM 60.8 °F - 57.2 °F 88% 29.99 in 10.0 mi South 4.6 mph - N/A   Clear
4:55 AM 60.8 °F - 57.2 °F 88% 29.99 in 10.0 mi South 5.8 mph - N/A   Clear
5:15 AM 60.8 °F - 57.2 °F 88% 29.98 in 10.0 mi South 4.6 mph - N/A   Clear
5:34 AM 60.8 °F - 57.2 °F 88% 29.99 in 10.0 mi South 5.8 mph - N/A   Clear
5:55 AM 60.8 °F - 57.2 °F 88% 29.99 in 10.0 mi NNW 5.8 mph - N/A   Clear
6:15 AM 60.8 °F - 57.2 °F 88% 30.00 in 10.0 mi NNE 4.6 mph - N/A   Clear
6:34 AM 60.8 °F - 57.2 °F 88% 30.00 in 10.0 mi Calm Calm - N/A   Clear
6:54 AM 60.8 °F - 57.2 °F 88% 30.01 in 10.0 mi Calm Calm - N/A   Clear
7:15 AM 62.6 °F - 57.2 °F 82% 30.01 in 10.0 mi Calm Calm - N/A   Clear
7:35 AM 64.4 °F - 60.8 °F 88% 30.00 in 10.0 mi SE 3.5 mph - N/A   Clear
7:55 AM 66.2 °F - 60.8 °F 83% 30.01 in 10.0 mi SE 3.5 mph - N/A   Clear
8:15 AM 68.0 °F - 60.8 °F 78% 30.00 in 10.0 mi South 4.6 mph - N/A   Clear
8:35 AM 71.6 °F - 62.6 °F 73% 30.00 in 10.0 mi South 4.6 mph - N/A   Clear
8:55 AM 73.4 °F - 62.6 °F 69% 30.00 in 10.0 mi SW 8.1 mph - N/A   Clear
9:15 AM 77.0 °F - 62.6 °F 61% 29.99 in 10.0 mi SW 9.2 mph 16.1 mph N/A   Clear
9:35 AM 78.8 °F - 62.6 °F 57% 29.99 in 10.0 mi SW 11.5 mph - N/A   Clear
9:55 AM 78.8 °F - 64.4 °F 61% 29.99 in 10.0 mi SW 11.5 mph 17.3 mph N/A   Clear
10:15 AM 80.6 °F 82.3 °F 64.4 °F 58% 29.99 in 10.0 mi SW 13.8 mph 17.3 mph N/A   Clear
10:34 AM 80.6 °F 82.3 °F 64.4 °F 58% 30.00 in 10.0 mi WSW 13.8 mph 17.3 mph N/A   Clear
10:55 AM 80.6 °F 82.3 °F 64.4 °F 58% 30.00 in 10.0 mi WSW 12.7 mph - N/A   Clear
11:15 AM 82.4 °F 83.9 °F 64.4 °F 54% 30.00 in 10.0 mi SW 8.1 mph 16.1 mph N/A   Clear
11:35 AM 82.4 °F 83.9 °F 64.4 °F 54% 30.00 in 10.0 mi SW 9.2 mph - N/A   Clear
11:55 AM 82.4 °F 83.9 °F 64.4 °F 54% 30.00 in 10.0 mi WSW 8.1 mph - N/A   Clear
12:14 PM 82.4 °F 83.9 °F 64.4 °F 54% 30.00 in 10.0 mi SSW 9.2 mph - N/A   Clear
12:29 PM 84.2 °F 86.6 °F 66.2 °F 55% 29.99 in 10.0 mi SW 9.2 mph - N/A   Clear
12:55 PM 84.2 °F 86.6 °F 66.2 °F 55% 29.99 in 10.0 mi WSW 9.2 mph - N/A   Scattered Clouds
1:23 PM 84.2 °F 86.6 °F 66.2 °F 55% 29.97 in 10.0 mi WSW 10.4 mph - N/A   Clear
1:38 PM 86.0 °F 88.2 °F 66.2 °F 51% 29.97 in 10.0 mi West 10.4 mph - N/A   Scattered Clouds
1:53 PM 84.2 °F 86.6 °F 66.2 °F 55% 29.96 in 10.0 mi SW 10.4 mph - N/A   Clear
2:17 PM 84.2 °F 86.6 °F 66.2 °F 55% 29.94 in 10.0 mi SW 11.5 mph - N/A   Clear
2:34 PM 75.2 °F - 64.4 °F 69% 29.99 in 10.0 mi North 15.0 mph 34.5 mph N/A   Scattered Clouds
2:57 PM 73.4 °F - 62.6 °F 69% 29.96 in 10.0 mi NNE 5.8 mph - N/A   Mostly Cloudy
3:07 PM 73.4 °F - 62.6 °F 69% 29.97 in 10.0 mi North 6.9 mph - N/A   Scattered Clouds
3:26 PM 73.4 °F - 62.6 °F 69% 30.00 in 10.0 mi South 13.8 mph - N/A   Mostly Cloudy
3:41 PM 69.8 °F - 62.6 °F 78% 30.00 in 1.2 mi ESE 3.5 mph - N/A   Overcast
4:14 PM 69.8 °F - 64.4 °F 83% 29.98 in 10.0 mi East 3.5 mph - N/A   Mostly Cloudy
4:41 PM 73.4 °F - 66.2 °F 78% 29.96 in 10.0 mi East 6.9 mph - N/A   Clear
4:46 PM 73.4 °F - 66.2 °F 78% 29.96 in 10.0 mi ENE 6.9 mph - N/A   Clear
5:09 PM 75.2 °F - 66.2 °F 73% 29.95 in 10.0 mi ENE 6.9 mph - N/A   Clear
5:41 PM 77.0 °F - 66.2 °F 69% 29.94 in 10.0 mi East 5.8 mph - N/A   Clear
5:48 PM 77.0 °F - 66.2 °F 69% 29.94 in 10.0 mi East 5.8 mph - N/A   Clear
6:06 PM 75.2 °F - 64.4 °F 69% 29.95 in 10.0 mi ESE 4.6 mph - N/A   Clear
6:21 PM 75.2 °F - 66.2 °F 73% 29.95 in 10.0 mi ESE 5.8 mph - N/A   Scattered Clouds
6:41 PM 77.0 °F - 64.4 °F 65% 29.94 in 10.0 mi East 4.6 mph - N/A   Clear
7:15 PM 75.2 °F - 64.4 °F 69% 29.94 in 10.0 mi East 3.5 mph - N/A   Clear
7:30 PM 75.2 °F - 66.2 °F 73% 29.95 in 10.0 mi East 2.3 mph - N/A   Clear
7:41 PM 75.2 °F - 66.2 °F 73% 29.95 in 10.0 mi ESE 1.2 mph - N/A   Clear
8:21 PM 73.4 °F - 68.0 °F 83% 29.95 in 10.0 mi Calm Calm - N/A   Clear
8:41 PM 71.6 °F - 66.2 °F 83% 29.96 in 10.0 mi South 3.5 mph - N/A   Clear
9:01 PM 71.6 °F - 66.2 °F 83% 29.97 in 10.0 mi SSE 5.8 mph - N/A   Clear
9:21 PM 69.8 °F - 64.4 °F 83% 29.98 in 10.0 mi SSE 6.9 mph - N/A   Clear
10:01 PM 69.8 °F - 62.6 °F 78% 29.99 in 7.0 mi South 3.5 mph - N/A   Clear
10:05 PM 68.0 °F - 62.6 °F 83% 29.99 in 7.0 mi South 3.5 mph - N/A   Clear
10:21 PM 66.2 °F - 62.6 °F 88% 29.99 in 10.0 mi South 3.5 mph - N/A   Clear
10:41 PM 66.2 °F - 62.6 °F 88% 29.99 in 10.0 mi South 2.3 mph - N/A   Clear
11:01 PM 66.2 °F - 62.6 °F 88% 29.98 in 10.0 mi South 2.3 mph - N/A   Clear
11:21 PM 64.4 °F - 62.6 °F 94% 29.97 in 10.0 mi South 1.2 mph - N/A   Clear